[[{"header":{"parameterUnit":"m.s-1","parameterCategory":1,"la1":30.2991,"la2":30.254,"lo1":-89.0895,"lo2":-89.0444,"dy":0.0017,"dx":0.0017,"nx":28,"ny":28,"refTime":"2024-07-10T03:00:00:Z","depth":0,"parameterNumber":2,"parameterNumberName":"U-component_of_WINDS"},"data":[0,0,0,0,0,0,0,0,0,0,0,0,0,0,0,0,0,0,0,0,0,0,0,0,0,0,0,0,0,0,0,0,0,0,0,0,0,0,0,0,0,0,0,0,0,0,0,0,0,0,0,0,0,0,0,0,0,0,3.5467,3.5467,0,3.5443,3.5442,3.5442,3.5309,3.5306,3.5303,3.53,3.5277,3.5279,3.5281,0,0,0,0,0,0,0,0,0,0,0,0,0,3.5399,3.5401,3.5467,3.5467,3.5467,3.5443,3.5442,3.5442,3.531,3.5306,3.5302,3.5299,3.5276,3.5279,3.5282,0,0,0,0,0,0,0,0,0,0,0,0,0,3.5407,3.5402,3.5467,3.5398,3.5391,3.5443,3.5442,3.5442,3.5311,3.5306,3.5301,3.5297,3.5275,3.5279,3.5282,3.5399,0,0,3.5293,3.5294,0,0,0,0,0,0,0,0,3.5407,3.541,3.5408,3.5403,3.5395,3.5374,3.541,3.5428,3.5312,3.5341,3.53,3.5294,3.5313,3.5313,3.5319,3.5398,3.5397,3.5293,3.5295,3.5297,3.5298,0,0,0,0,0,0,0,3.5407,3.541,3.5457,3.5408,3.5401,3.5368,3.5363,3.5412,3.5354,3.5338,3.5329,3.5328,3.5309,3.5316,3.5318,3.5397,3.5293,3.5296,3.5298,3.53,3.5565,3.557,0,0,0,0,0,0,3.5416,3.5411,3.5458,3.5457,3.539,3.5373,3.5368,3.5386,3.5353,3.5344,3.5332,3.5321,3.5312,3.5314,3.5316,3.5448,3.5297,3.53,3.5302,3.5561,3.5567,3.5572,0,0,0,0,0,0,3.5415,3.5421,3.5459,3.5431,3.5433,3.5379,3.54,3.5388,3.5395,3.5348,3.5337,3.535,3.5309,3.5311,3.5378,3.5445,3.5302,3.5305,3.5555,3.5562,3.5569,3.5714,0,0,0,0,0,0,3.5413,3.5422,3.5466,3.5433,3.5435,3.5522,3.5404,3.5391,3.5401,3.5388,3.5362,3.5354,3.5305,3.5374,3.5382,3.5448,3.5307,3.5548,3.5558,3.5567,3.5703,3.5726,3.5745,0,0,0,0,0,3.5411,3.5509,3.5469,3.5476,3.549,3.5527,3.5528,3.5469,3.5407,3.5451,3.542,3.5354,3.5437,3.5382,3.539,3.5458,3.5544,3.5555,3.5566,3.5694,3.5721,3.5745,0,0,0,0,0,0,3.5554,3.5504,3.5459,3.5549,3.5543,3.5504,3.5557,3.5501,3.5513,3.55,3.5428,3.5423,3.55,3.5486,3.5425,3.5567,3.5479,3.5492,3.5573,3.5599,3.562,3.5621,3.531,0,0,0,0,0,3.5595,3.5629,3.5584,3.5668,3.5667,3.5613,3.5627,3.5582,3.5573,3.557,3.5545,3.5539,3.5563,3.558,3.56,3.5701,3.5692,3.5751,3.5772,3.5789,3.5801,3.585,3.5875,3.5608,3.5608,3.5608,0,0,3.5682,3.5659,3.5685,3.5696,3.5686,3.5721,3.5612,3.5656,3.5681,3.5577,3.5637,3.5619,3.5607,3.569,3.5726,3.5681,3.5873,3.5804,3.5818,3.582,3.5864,3.5889,3.5912,3.5616,3.5615,3.5613,0,0,3.5858,3.5845,3.5911,3.5903,3.5888,3.5851,3.5867,3.5836,3.5819,3.5878,3.58,3.5829,3.5874,3.5867,3.587,3.604,3.5979,3.6048,3.6157,3.6205,3.6226,3.6244,3.6302,3.6324,3.6061,3.6061,3.6061,0,3.5968,3.6019,3.5953,3.6,3.6006,3.5912,3.5977,3.5973,3.5966,3.5972,3.5922,3.5972,3.5958,3.6036,3.6077,3.6084,3.6098,3.6051,3.6228,3.6246,3.6262,3.6316,3.6339,3.6069,3.6068,3.6068,3.6067,0,3.6153,3.6189,3.6244,3.6238,3.625,3.6307,3.6249,3.6269,3.6223,3.6191,3.6251,3.623,3.6242,3.6258,3.6214,3.633,3.6302,3.6241,3.6151,3.6297,3.6346,3.6367,3.6081,3.6078,3.6076,3.6074,0,0,3.6419,3.6372,3.6394,3.6388,3.6363,3.639,3.6441,3.6452,3.6469,3.6468,3.6507,3.6545,3.6487,3.6491,3.6445,3.6488,3.662,3.6421,3.6419,3.6456,3.6742,3.6786,3.6812,3.6579,3.6583,3.6586,3.6742,0,3.6585,3.6669,3.661,3.6704,3.6735,3.6644,3.6688,3.6678,3.6649,3.6671,3.6639,3.6665,3.6589,3.659,3.6628,3.6596,3.6676,3.6584,3.6614,3.6616,3.6618,3.6838,3.6886,3.7034,3.6761,3.6765,3.6767,0,3.679,3.6794,3.6891,3.6856,3.6867,3.6908,3.691,3.6933,3.6918,3.6894,3.6896,3.6838,3.6885,3.6797,3.6859,3.6798,3.6807,3.6793,3.6797,3.6797,3.67,3.6841,3.708,3.7102,3.6798,3.6795,3.6793,0,3.6971,3.7001,3.7061,3.706,3.7022,3.7052,3.7038,3.7018,3.7027,3.703,3.7034,3.7044,3.7048,3.7056,3.7002,3.6943,3.707,3.6979,3.705,3.7051,3.708,3.7079,3.7322,3.709,3.7089,3.7089,3.7088,0,3.7161,3.7223,3.7141,3.7179,3.7244,3.7176,3.7243,3.7219,3.7202,3.7232,3.7155,3.7185,3.7112,3.7135,3.7093,3.7149,3.7152,3.7133,3.7121,3.7139,3.7141,3.7143,3.713,3.7095,3.7093,3.7092,3.7091,0,3.7374,3.7322,3.7382,3.7339,3.733,3.738,3.7344,3.7376,3.7341,3.738,3.7385,3.733,3.7352,3.7299,3.7314,3.7285,3.7365,3.7337,3.7369,3.736,3.7434,3.7427,3.7685,3.7714,3.7466,3.7468,3.747,0,3.7499,3.7543,3.7505,3.7519,3.7508,3.7532,3.7539,3.7473,3.7484,3.7468,3.7502,3.7517,3.7525,3.7565,3.7526,3.7536,3.7507,3.7596,3.7508,3.7523,3.7505,3.7502,3.7505,3.7614,3.7618,3.762,3.7622,0,3.7723,3.7694,3.7708,3.7711,3.7722,3.7723,3.7718,3.7733,3.7662,3.7678,3.7698,3.7705,3.7718,3.7733,3.7734,3.7719,3.7658,3.765,3.7667,3.7685,3.77,3.769,3.7417,3.7644,3.7642,3.764,3.7639,3.7638,3.7894,3.7928,3.7905,3.7921,3.791,3.7906,3.7933,3.79,3.7915,3.792,3.788,3.7908,3.7889,3.7883,3.7874,3.7895,3.7854,3.7879,3.7884,3.7891,3.7902,3.7699,3.7895,3.7894,3.7894,3.7893,3.7892,0,3.8112,3.8092,3.8108,3.8101,3.8114,3.8055,3.8045,3.806,3.8085,3.8072,3.808,3.8102,3.8116,3.8078,3.8085,3.8109,3.8081,3.8113,3.811,3.8107,3.7939,3.7923,3.8135,3.8135,3.8135,3.8135,3.8135,3.8135,3.8227,3.828,3.8248,3.8295,3.8274,3.83,3.8299,3.8294,3.8283,3.831,3.832,3.8295,3.8271,3.8275,3.8285,3.8273,3.8278,3.8319,3.8298,3.8143,3.8119,3.8096,3.808,3.8322,3.8322,3.8463,3.8464,3.8465]},{"header":{"parameterUnit":"m.s-1","parameterCategory":1,"la1":30.2991,"la2":30.254,"lo1":-89.0895,"lo2":-89.0444,"dy":0.0017,"dx":0.0017,"nx":28,"ny":28,"refTime":"2024-07-10T03:00:00:Z","depth":0,"parameterNumber":3,"parameterNumberName":"V-component_of_WINDS"},"data":[0,0,0,0,0,0,0,0,0,0,0,0,0,0,0,0,0,0,0,0,0,0,0,0,0,0,0,0,0,0,0,0,0,0,0,0,0,0,0,0,0,0,0,0,0,0,0,0,0,0,0,0,0,0,0,0,0,0,4.7617,4.7616,0,4.7493,4.7491,4.749,4.736,4.7358,4.7356,4.7354,4.7224,4.7222,4.7221,0,0,0,0,0,0,0,0,0,0,0,0,0,4.7738,4.7737,4.7617,4.7616,4.7614,4.7493,4.7491,4.749,4.736,4.7358,4.7356,4.7354,4.7225,4.7223,4.722,0,0,0,0,0,0,0,0,0,0,0,0,0,4.7657,4.7736,4.7617,4.7535,4.7526,4.7493,4.7491,4.7489,4.7361,4.7358,4.7355,4.7353,4.7225,4.7223,4.722,4.7258,0,0,4.7212,4.7211,0,0,0,0,0,0,0,0,4.7662,4.7653,4.7549,4.7541,4.7531,4.7439,4.7486,4.7411,4.7361,4.7423,4.7354,4.7351,4.7298,4.7289,4.7271,4.7251,4.7246,4.7212,4.721,4.7209,4.7208,0,0,0,0,0,0,0,4.7668,4.7657,4.7568,4.7547,4.7536,4.7503,4.7488,4.7471,4.7377,4.7418,4.7408,4.7395,4.7292,4.7274,4.7267,4.7244,4.7212,4.7209,4.7208,4.7207,4.7244,4.7246,0,0,0,0,0,0,4.7686,4.7663,4.7572,4.7564,4.7591,4.7503,4.7487,4.7471,4.7377,4.736,4.7398,4.739,4.728,4.7271,4.7262,4.7296,4.7209,4.7206,4.7205,4.7241,4.7244,4.7247,0,0,0,0,0,0,4.769,4.768,4.7577,4.7611,4.7595,4.7504,4.7487,4.747,4.7452,4.7362,4.7344,4.7397,4.7278,4.7266,4.7259,4.729,4.7205,4.7203,4.7238,4.7242,4.7246,4.7366,0,0,0,0,0,0,4.7694,4.7681,4.7696,4.7612,4.7594,4.7577,4.7489,4.747,4.7448,4.7436,4.7356,4.734,4.7275,4.7264,4.7256,4.7284,4.7201,4.7235,4.724,4.7244,4.7359,4.7374,4.7387,0,0,0,0,0,4.7698,4.7735,4.7697,4.7687,4.761,4.7579,4.7569,4.7493,4.7451,4.7464,4.7405,4.7343,4.7289,4.7264,4.7255,4.7283,4.7232,4.7238,4.7244,4.7353,4.7371,4.7386,0,0,0,0,0,0,4.7824,4.7722,4.7679,4.769,4.7645,4.7557,4.7571,4.7515,4.748,4.747,4.7377,4.736,4.7363,4.7322,4.7297,4.7312,4.7251,4.7256,4.7337,4.7354,4.7367,4.7375,4.7198,0,0,0,0,0,4.7853,4.7838,4.775,4.7768,4.7747,4.7664,4.7647,4.7593,4.7541,4.7521,4.7462,4.7413,4.7384,4.7367,4.7337,4.7354,4.7332,4.7368,4.7382,4.7394,4.7397,4.7399,4.7413,4.7266,4.7266,4.7266,0,0,4.7913,4.7855,4.7851,4.7791,4.7749,4.7733,4.7648,4.7636,4.7622,4.7519,4.7507,4.7463,4.7402,4.7406,4.7405,4.7372,4.7433,4.7401,4.7411,4.7408,4.7407,4.7421,4.7433,4.727,4.727,4.7269,0,0,4.8012,4.7969,4.7977,4.7937,4.7875,4.7819,4.7821,4.7742,4.7708,4.7696,4.7617,4.76,4.7554,4.7512,4.7485,4.7568,4.7507,4.7561,4.7631,4.7634,4.7645,4.7655,4.768,4.7691,4.7565,4.7566,4.7566,0,4.8093,4.8067,4.7988,4.798,4.7954,4.7862,4.7868,4.7832,4.7763,4.7747,4.7712,4.765,4.7603,4.7594,4.7614,4.7597,4.7593,4.7568,4.765,4.7659,4.7667,4.769,4.77,4.7572,4.7571,4.7571,4.757,0,4.8168,4.8151,4.8166,4.8101,4.8077,4.8077,4.7996,4.7982,4.793,4.7877,4.7864,4.7804,4.7757,4.7752,4.7702,4.7736,4.7717,4.7668,4.7605,4.7689,4.7709,4.7717,4.7582,4.7579,4.7577,4.7576,0,0,4.834,4.8233,4.8238,4.8207,4.8131,4.8115,4.811,4.8065,4.8053,4.8009,4.7998,4.7961,4.7914,4.7884,4.7828,4.7832,4.7896,4.7781,4.7778,4.7801,4.7924,4.7959,4.797,4.7857,4.7858,4.7859,4.7928,0,4.8423,4.8408,4.8336,4.8341,4.8322,4.8234,4.8228,4.818,4.8131,4.8106,4.8051,4.8025,4.7968,4.7948,4.7948,4.7888,4.7918,4.7883,4.7843,4.7843,4.7857,4.7981,4.8018,4.8086,4.7936,4.7937,4.7938,0,4.8517,4.8478,4.8482,4.8404,4.8393,4.839,4.8341,4.8321,4.8264,4.8227,4.8193,4.813,4.8116,4.8061,4.8038,4.8015,4.7995,4.7963,4.7964,4.7954,4.7893,4.7971,4.8106,4.8114,4.795,4.7949,4.7948,0,4.8637,4.8587,4.858,4.8557,4.8468,4.8466,4.8429,4.8369,4.8346,4.8304,4.8287,4.8244,4.822,4.8187,4.8113,4.808,4.8097,4.8036,4.8063,4.8065,4.8068,4.8068,4.8197,4.8063,4.8062,4.8062,4.8062,0,4.8735,4.8739,4.8633,4.8629,4.863,4.8548,4.8551,4.8505,4.8452,4.8436,4.8358,4.8344,4.8249,4.8224,4.8166,4.8154,4.8144,4.8112,4.8096,4.8117,4.812,4.8099,4.8091,4.8065,4.8064,4.8064,4.8063,0,4.8867,4.8797,4.8784,4.8701,4.868,4.8684,4.8612,4.8603,4.855,4.853,4.852,4.8435,4.8401,4.8325,4.8271,4.8232,4.8232,4.8206,4.8251,4.824,4.827,4.8267,4.8387,4.8397,4.8261,4.8263,4.8264,0,4.8932,4.8933,4.885,4.8834,4.88,4.8775,4.8751,4.867,4.8648,4.8582,4.8581,4.8541,4.8504,4.8453,4.8385,4.8341,4.8311,4.8356,4.8303,4.8323,4.8306,4.8305,4.8303,4.8366,4.8368,4.837,4.8371,0,4.9053,4.9018,4.8987,4.8943,4.8917,4.8879,4.8836,4.8827,4.8735,4.8714,4.8678,4.865,4.8594,4.8553,4.85,4.8458,4.8398,4.8389,4.8392,4.8411,4.8435,4.8418,4.8278,4.8385,4.8384,4.8383,4.8382,4.8382,4.915,4.9145,4.9086,4.9053,4.9013,4.8974,4.8961,4.8906,4.8876,4.8824,4.8778,4.8746,4.8686,4.8608,4.8571,4.8543,4.8513,4.8519,4.8519,4.8521,4.8528,4.8444,4.8533,4.8533,4.8532,4.8532,4.8532,0,4.9262,4.922,4.9191,4.9133,4.9107,4.9056,4.9006,4.8986,4.8959,4.891,4.8875,4.8832,4.8793,4.8722,4.8675,4.8666,4.8637,4.8656,4.8654,4.8644,4.856,4.856,4.868,4.868,4.868,4.868,4.868,4.868,4.9317,4.9306,4.9264,4.9231,4.9188,4.9156,4.9131,4.9095,4.9054,4.9011,4.8977,4.8932,4.8873,4.8821,4.8781,4.8761,4.8746,4.8773,4.8744,4.8665,4.8651,4.8637,4.8636,4.8771,4.8772,4.883,4.883,4.8831]}]]